• In Russia
  • List of Countries
  • For 7 days
  • Water Temperature
  • Satellite Maps
  • Weather Map
  • Weather Widgets
  • user-avatar
    Login

    Hourly Weather Dikhil

    Today, 21 October, Sunday

    Time Temperature Precipitation Wind Pressure Humidity
    00:00 +29°C° 0.3 mm 4 mps 717 mmHg 71%
    01:00 +28°C° 0.2 mm 4 mps 717 mmHg 72%
    02:00 +28°C° 0.2 mm 4 mps 717 mmHg 73%
    03:00 +28°C° 0.2 mm 4 mps 717 mmHg 74%
    04:00 +28°C° 0.7 mm 4 mps 717 mmHg 75%
    05:00 +28°C° 0.7 mm 4 mps 717 mmHg 75%
    06:00 +27°C° 0.7 mm 4 mps 717 mmHg 75%
    07:00 +28°C° 0.3 mm 4 mps 718 mmHg 69%
    08:00 +30°C° 0.3 mm 5 mps 718 mmHg 64%
    09:00 +32°C° 0.3 mm 5 mps 719 mmHg 58%
    10:00 +33°C° 0.2 mm 5 mps 718 mmHg 53%
    11:00 +34°C° 0.2 mm 5 mps 718 mmHg 49%
    12:00 +35°C° 0.2 mm 5 mps 718 mmHg 44%
    13:00 +35°C° 0 mm 6 mps 717 mmHg 44%
    14:00 +36°C° 0 mm 6 mps 717 mmHg 44%
    15:00 +36°C° 0 mm 6 mps 716 mmHg 45%
    16:00 +35°C° 0.1 mm 7 mps 716 mmHg 50%
    17:00 +33°C° 0.1 mm 7 mps 716 mmHg 56%
    18:00 +32°C° 0.1 mm 7 mps 716 mmHg 61%
    19:00 +32°C° 0.4 mm 7 mps 717 mmHg 64%
    20:00 +30°C° 0.4 mm 7 mps 717 mmHg 67%
    21:00 +29°C° 0.4 mm 6 mps 718 mmHg 69%
    22:00 +29°C° 0 mm 6 mps 718 mmHg 70%
    23:00 +29°C° 0 mm 6 mps 718 mmHg 71%

    Tomorrow, 22 October, Monday

    Time Temperature Precipitation Wind Pressure Humidity
    00:00 +28°C° 0 mm 5 mps 718 mmHg 72%
    01:00 +28°C° 0 mm 5 mps 718 mmHg 73%
    02:00 +28°C° 0 mm 5 mps 717 mmHg 74%
    03:00 +27°C° 0 mm 5 mps 717 mmHg 76%
    04:00 +27°C° 0 mm 5 mps 718 mmHg 76%
    05:00 +27°C° 0 mm 5 mps 718 mmHg 77%
    06:00 +27°C° 0 mm 5 mps 718 mmHg 77%
    07:00 +28°C° 0 mm 6 mps 719 mmHg 72%
    08:00 +29°C° 0 mm 6 mps 719 mmHg 67%
    09:00 +30°C° 0 mm 6 mps 720 mmHg 62%
    10:00 +32°C° 0 mm 6 mps 719 mmHg 58%
    11:00 +33°C° 0 mm 7 mps 719 mmHg 54%
    12:00 +34°C° 0 mm 7 mps 719 mmHg 49%
    13:00 +34°C° 0 mm 7 mps 718 mmHg 50%
    14:00 +34°C° 0 mm 7 mps 717 mmHg 50%
    15:00 +34°C° 0 mm 7 mps 716 mmHg 50%
    16:00 +33°C° 0 mm 7 mps 716 mmHg 55%
    17:00 +32°C° 0 mm 7 mps 716 mmHg 59%
    18:00 +30°C° 0 mm 7 mps 716 mmHg 63%
    19:00 +29°C° 0 mm 7 mps 717 mmHg 65%
    20:00 +29°C° 0 mm 6 mps 717 mmHg 68%
    21:00 +28°C° 0 mm 6 mps 718 mmHg 70%
    22:00 +28°C° 0 mm 5 mps 718 mmHg 71%
    23:00 +28°C° 0 mm 5 mps 718 mmHg 72%

    Day after tomorrow, 23 October, Tuesday

    Time Temperature Precipitation Wind Pressure Humidity
    00:00 +27°C° 0 mm 5 mps 718 mmHg 73%
    01:00 +27°C° 0 mm 5 mps 718 mmHg 74%
    02:00 +27°C° 0 mm 5 mps 718 mmHg 74%
    03:00 +27°C° 0 mm 5 mps 717 mmHg 75%
    04:00 +27°C° 0.1 mm 5 mps 718 mmHg 75%
    05:00 +26°C° 0.1 mm 5 mps 718 mmHg 76%
    06:00 +26°C° 0.1 mm 5 mps 718 mmHg 77%
    07:00 +27°C° 0 mm 5 mps 719 mmHg 72%
    08:00 +28°C° 0 mm 6 mps 719 mmHg 68%
    09:00 +29°C° 0 mm 6 mps 720 mmHg 64%
    10:00 +30°C° 0 mm 6 mps 719 mmHg 59%
    11:00 +33°C° 0 mm 6 mps 719 mmHg 55%
    12:00 +34°C° 0 mm 7 mps 719 mmHg 50%
    13:00 +34°C° 0 mm 7 mps 718 mmHg 49%
    14:00 +34°C° 0 mm 7 mps 717 mmHg 49%
    15:00 +34°C° 0 mm 7 mps 717 mmHg 48%
    16:00 +33°C° 0 mm 7 mps 717 mmHg 53%
    17:00 +32°C° 0 mm 7 mps 717 mmHg 57%
    18:00 +30°C° 0 mm 7 mps 717 mmHg 62%
    19:00 +29°C° 0 mm 7 mps 717 mmHg 65%
    20:00 +29°C° 0 mm 6 mps 718 mmHg 67%
    21:00 +28°C° 0 mm 6 mps 718 mmHg 70%
    22:00 +28°C° 0 mm 6 mps 718 mmHg 72%
    23:00 +28°C° 0 mm 5 mps 718 mmHg 73%

    24 October, Wednesday

    Time Temperature Precipitation Wind Pressure Humidity
    00:00 +27°C° 0 mm 5 mps 718 mmHg 75%
    01:00 +27°C° 0 mm 5 mps 718 mmHg 75%
    02:00 +27°C° 0 mm 5 mps 717 mmHg 76%
    03:00 +27°C° 0 mm 5 mps 717 mmHg 77%
    04:00 +27°C° 0 mm 5 mps 717 mmHg 77%
    05:00 +27°C° 0 mm 5 mps 718 mmHg 77%
    06:00 +27°C° 0 mm 5 mps 718 mmHg 78%
    07:00 +28°C° 0 mm 5 mps 719 mmHg 73%
    08:00 +29°C° 0 mm 5 mps 719 mmHg 67%
    09:00 +30°C° 0 mm 6 mps 720 mmHg 62%
    10:00 +32°C° 0 mm 6 mps 719 mmHg 57%
    11:00 +33°C° 0 mm 6 mps 719 mmHg 52%
    12:00 +34°C° 0 mm 6 mps 718 mmHg 47%
    13:00 +34°C° 0 mm 6 mps 717 mmHg 48%
    14:00 +34°C° 0 mm 6 mps 717 mmHg 48%
    15:00 +34°C° 0 mm 7 mps 716 mmHg 49%
    16:00 +33°C° 0 mm 7 mps 716 mmHg 54%
    17:00 +32°C° 0 mm 7 mps 716 mmHg 59%
    18:00 +30°C° 0 mm 7 mps 716 mmHg 64%
    19:00 +30°C° 0 mm 7 mps 717 mmHg 66%
    20:00 +29°C° 0 mm 6 mps 717 mmHg 68%
    21:00 +29°C° 0 mm 5 mps 718 mmHg 71%
    22:00 +28°C° 0.1 mm 5 mps 717 mmHg 72%
    23:00 +28°C° 0.1 mm 5 mps 717 mmHg 73%

    25 October, Thursday

    Time Temperature Precipitation Wind Pressure Humidity
    00:00 +28°C° 0.1 mm 4 mps 717 mmHg 74%
    01:00 +28°C° 0.1 mm 4 mps 717 mmHg 74%
    02:00 +27°C° 0.1 mm 4 mps 716 mmHg 75%
    03:00 +27°C° 0.1 mm 5 mps 716 mmHg 75%
    04:00 +27°C° 0 mm 5 mps 717 mmHg 76%
    05:00 +27°C° 0 mm 5 mps 717 mmHg 77%
    06:00 +27°C° 0 mm 5 mps 717 mmHg 78%
    07:00 +28°C° 0.4 mm 5 mps 718 mmHg 73%
    08:00 +29°C° 0.4 mm 5 mps 718 mmHg 68%
    09:00 +29°C° 0.4 mm 6 mps 719 mmHg 64%
    10:00 +30°C° 0.3 mm 6 mps 718 mmHg 59%
    11:00 +33°C° 0.3 mm 6 mps 718 mmHg 55%
    12:00 +34°C° 0.3 mm 6 mps 717 mmHg 51%
    13:00 +34°C° 0.1 mm 6 mps 717 mmHg 51%
    14:00 +34°C° 0.1 mm 6 mps 716 mmHg 51%
    15:00 +34°C° 0.1 mm 7 mps 715 mmHg 51%
    16:00 +33°C° 0 mm 7 mps 716 mmHg 55%
    17:00 +32°C° 0 mm 7 mps 716 mmHg 59%
    18:00 +30°C° 0 mm 7 mps 716 mmHg 64%
    19:00 +30°C° 0.1 mm 6 mps 717 mmHg 66%
    20:00 +29°C° 0.1 mm 5 mps 717 mmHg 68%
    21:00 +29°C° 0.1 mm 5 mps 717 mmHg 71%
    22:00 +29°C° 0.1 mm 5 mps 717 mmHg 72%
    23:00 +28°C° 0.1 mm 5 mps 717 mmHg 73%

    26 October, Friday

    Time Temperature Precipitation Wind Pressure Humidity
    00:00 +28°C° 0.1 mm 5 mps 717 mmHg 75%
    01:00 +28°C° 0.1 mm 5 mps 717 mmHg 75%
    02:00 +27°C° 0.1 mm 5 mps 716 mmHg 76%
    03:00 +27°C° 0.1 mm 6 mps 716 mmHg 77%
    04:00 +27°C° 0 mm 6 mps 717 mmHg 77%
    05:00 +27°C° 0 mm 6 mps 717 mmHg 78%
    06:00 +27°C° 0 mm 6 mps 718 mmHg 78%
    07:00 +28°C° 0 mm 6 mps 718 mmHg 74%
    08:00 +28°C° 0 mm 6 mps 719 mmHg 70%
    09:00 +29°C° 0 mm 7 mps 719 mmHg 65%
    10:00 +30°C° 0 mm 7 mps 719 mmHg 61%
    11:00 +32°C° 0 mm 7 mps 718 mmHg 56%
    12:00 +33°C° 0 mm 7 mps 718 mmHg 51%
    13:00 +34°C° 0 mm 7 mps 717 mmHg 51%
    14:00 +34°C° 0 mm 7 mps 717 mmHg 51%
    15:00 +34°C° 0 mm 7 mps 716 mmHg 51%
    16:00 +33°C° 0 mm 7 mps 716 mmHg 55%
    17:00 +32°C° 0 mm 7 mps 716 mmHg 59%
    18:00 +30°C° 0 mm 7 mps 716 mmHg 63%
    19:00 +29°C° 0 mm 7 mps 717 mmHg 65%
    20:00 +29°C° 0 mm 6 mps 717 mmHg 68%
    21:00 +28°C° 0 mm 6 mps 718 mmHg 70%
    22:00 +28°C° 0 mm 6 mps 718 mmHg 71%
    23:00 +28°C° 0 mm 6 mps 718 mmHg 73%
    Show more